Regional Weather Roundup
Issued by NWS

Home | Current Version | Previous Version | Graphics & Text | Print | Product List | Glossary On
Versions: 1 2 3 4 5 6 7 8 9 10 11 12 13 14 15 16 17 18 19 20 21 22 23 24 25 26 27 28 29 30 31 32 33 34 35 36 37 38 39 40 41 42 43 44 45 46 47 48 49 50
000
ASUS43 KLOT 211421
RWRIL

ILLINOIS REGIONAL WEATHER ROUNDUP
NATIONAL WEATHER SERVICE CHICAGO/ROMEOVILLE IL
900 AM CDT TUE APR 21 2015

NOTE: "FAIR" INDICATES FEW OR NO CLOUDS BELOW 12,000 FEET WITH NO
SIGNIFICANT WEATHER AND/OR OBSTRUCTIONS TO VISIBILITY.

* THESE STATIONS ARE NOT UNDER NWS QUALITY CONTROL. THEY ALSO MAY NOT
  REPORT WEATHER SUCH AS PRECIPITATION OR FOG.

ILZ001-002-007-009-015-016-024-211500-
NORTHWEST ILLINOIS

CITY           SKY/WX    TMP DP  RH WIND       PRES   REMARKS
MOLINE         SUNNY     47  27  45 W18G26    29.70S
STERLING*      SUNNY     46  30  53 W28G33    29.67S
SAVANNA*       MOSUNNY   44  28  53 W17G32    29.65S
$$

ILZ003-004-008-010-011-017-018-211500-
NORTH CENTRAL ILLINOIS

CITY           SKY/WX    TMP DP  RH WIND       PRES   REMARKS
ROCKFORD       PTSUNNY   42  28  57 W18G28    29.62S
FREEPORT*      MOSUNNY   42  29  61 W21G31    29.63S
ROCHELLE*      SUNNY     43  30  59 W24G32    29.64S
DE KALB*       MOSUNNY   41  28  60 W28G39    29.63R
PERU*          SUNNY     46  31  55 W22       29.69S
$$

ILZ005-006-012>014-019>023-211500-
NORTHEAST ILLINOIS

CITY           SKY/WX    TMP DP  RH WIND       PRES   REMARKS
CHICAGO-OHARE  PTSUNNY   43  29  57 W21G37    29.60S
CHICAGO-MIDWAY PTSUNNY   47  29  49 W23G33    29.63S
AURORA         PTSUNNY   45  30  55 W29G36    29.63F
LANSING*       MOSUNNY   46  26  45 W25G39    29.64F
JOLIET*        MOSUNNY   47  30  51 W22G31    29.66S
WAUKEGAN       CLOUDY    41  28  60 W10G21    29.55F
DUPAGE AIRPORT PTSUNNY   44  30  57 W23G36    29.61S
KANKAKEE*      SUNNY     47  33  59 W20G28    29.69S
WHEELING       CLOUDY    42  28  57 W15G30    29.60S
MORRIS*        SUNNY     45  30  54 W26G37    29.63F
ROMEOVILLE*    MOSUNNY   45  30  55 W24G36    29.64S
NORTHERLY ISL    N/A     45  27  49 W17         N/A
$$

LMZ740>746-211500-
SOUTHERN LAKE MICHIGAN

STATION/POSITION SKY/WX   TEMP    WIND        PRES    VSBY  WAVE
                          AIR SEA DIR/SP/G                  HT/PER
                          (F)     (DEG/KT/KT) (MB)    (MI)  (FT/S)
HARRISON CRIB              43     250/ 23/ 30   N/A
BURNHAM HARBOR             45     270/ 15/ 21   N/A
CALUMET HARBOR             45     250/ 15/ 21   N/A
BURNS HARBOR               44     240/ 20/ 25 1003.7
MICHIGAN CITY              43     230/ 29/ 34   N/A
MICHIGAN CITY 6N           44 46  270/ 21/ 29   N/A           5/ 4
$$

ILZ025>027-034>036-040-047-049-050-058-095>099-211500-
WEST-CENTRAL ILLINOIS

CITY           SKY/WX    TMP DP  RH WIND       PRES   REMARKS
QUINCY         SUNNY     49  27  42 W13       29.80S
GALESBURG*     SUNNY     46  30  52 W20       29.74S
MACOMB*        SUNNY     46  31  56 W12       29.79S
JACKSONVILLE*  CLOUDY    51  31  48 W13G21    29.80S
PITTSFIELD*    SUNNY     52  28  39 W12G18    29.83R
$$

ILZ028>032-037-038-041>044-048-051>054-059>061-211500-
CENTRAL ILLINOIS

CITY           SKY/WX    TMP DP  RH WIND       PRES   REMARKS
PONTIAC        SUNNY     48  34  58 W25G35    29.72S
BLOOMINGTON    SUNNY     45  31  58 W16       29.76R
DECATUR        SUNNY     50  32  50 W13       29.78R
PEORIA         SUNNY     49  29  46 W15       29.75S
LACON*         SUNNY     46  29  51 W17G25    29.71S
LINCOLN*       SUNNY     49  30  47 W6G16     29.77S
SPRINGFIELD    PTSUNNY   51  32  48 W16G25    29.80R
TAYLORVILLE    CLOUDY    48  34  57 W12       29.80S
$$

ILZ033-039-045-046-055>057-062-063-211500-
EAST-CENTRAL ILLINOIS

CITY           SKY/WX    TMP DP  RH WIND       PRES   REMARKS
CHAMPAIGN      SUNNY     50  34  54 W20       29.76R
DANVILLE*      MOSUNNY   47  33  58 W16G23    29.72S
RANTOUL*       SUNNY     48  34  58 W20       29.74S
MATTOON        MOSUNNY   50  33  52 W12       29.79R
PARIS*         MOSUNNY   50  37  60 SW17G23   29.79S
$$

ILZ079-100>102-211500-
SOUTHWEST ILLINOIS

CITY           SKY/WX    TMP DP  RH WIND       PRES   REMARKS
ALTON          PTSUNNY   52  30  43 W15       29.85S
BELLEVILLE     PTSUNNY   52  37  57 SW9       29.85S
CAHOKIA*       MOSUNNY   53  34  48 W10       29.86R
SPARTA*        SUNNY     53  36  52 W9        29.89S
$$

ILZ064>066-069>071-074>076-080>082-084>086-088>090-092>094-211500-
SOUTH-CENTRAL ILLINOIS

CITY           SKY/WX    TMP DP  RH WIND       PRES   REMARKS
CARBONDALE     SUNNY     54  36  50 W13       29.90S
CAIRO*         SUNNY     54  41  60 SW9       29.94S
EFFINGHAM*     SUNNY     52  29  40 SW15G21   29.84R
MARION         SUNNY     55  37  50 W12       29.91S
MT. VERNON     PTSUNNY   54  36  50 W12       29.87S
CENTRALIA*     MOSUNNY   53  34  49 W13G20    29.85S
SALEM*         SUNNY     54  35  47 W15G21    29.85S
METROPOLIS*    SUNNY     55  41  59 SW8       29.93S
$$

ILZ067-068-072-073-078-083-087-091-211500-
SOUTHEAST ILLINOIS

CITY           SKY/WX    TMP DP  RH WIND       PRES   REMARKS
LAWRENCEVILLE  MOSUNNY   54  34  46 W16       29.84S
FLORA*         SUNNY     53  33  47 W15G21    29.85S
FAIRFIELD*     MOSUNNY   55  36  49 W9G18     29.86R
HARRISBURG*    SUNNY     55  37  50 SW12G17   29.91S
ROBINSON*      MOSUNNY   51  34  52 W20       29.83S
CARMI*         SUNNY     55  33  43 SW14      29.87F
$$

ABBREVIATIONS USED IN REMARKS
   TC - TEMPERATURE IN CELSIUS
  WCI - WIND CHILL INDEX
   HX - HEAT INDEX
  VSB - VISIBILITY
$$



USA.gov is the U.S. government's official web portal to all federal, state and local government web resources and services.